Location: Ch�teau-Arnoux
(44.0814°N, 6.0027°E)
Time: 09:21:20
(UTC+00:00)

Cosmos 1833 Rocket - Pass Details

Date: 15 November 2019
Orbit: 832 x 840 km, 71.0° (Epoch: 11 December)

Event Time Altitude Azimuth Distance (km) Brightness Sun altitude
Exits shadow 03:30:34 42° 34° (NE) 1,175 3.6 -32.3°
Drops below altitude 10° 03:34:13 10° 28° (NNE) 2,452 5.4 -31.6°
Sets 03:36:40 0° 27° (NNE) 3,391 6.2 -31.2°
